When you browse on this site, cookies collect data to enhance your experience and personalize the content and advertising you see.
Visit our Privacy Policy to learn more. By continuing to use the site, you agree to this use of cookies and data.
  • En España
  • Lista de países
  • Para 7 días
  • Temperatura del agua
  • Mapa Satelital
  • El tiempo en el mapa
  • Informadores
  • user-avatar
    Iniciar sesión

    Tiempo cada hora Volokovaya

    Hoy, 20 Mayo, Lunes

    Tiempo Temperatura Precipitaciones Viento Presión Humedad
    00:00 +14°C° 0 mm 2 mps 747 mmHg 81%
    01:00 +14°C° 0 mm 2 mps 747 mmHg 81%
    02:00 +13°C° 0 mm 2 mps 747 mmHg 81%
    03:00 +13°C° 0 mm 2 mps 747 mmHg 81%
    04:00 +14°C° 0 mm 2 mps 747 mmHg 81%
    05:00 +14°C° 0 mm 2 mps 747 mmHg 81%
    06:00 +16°C° 0 mm 2 mps 748 mmHg 76%
    07:00 +18°C° 0 mm 3 mps 748 mmHg 71%
    08:00 +20°C° 0 mm 3 mps 748 mmHg 66%
    09:00 +21°C° 0 mm 3 mps 748 mmHg 60%
    10:00 +22°C° 0 mm 4 mps 748 mmHg 54%
    11:00 +23°C° 0 mm 4 mps 748 mmHg 48%
    12:00 +25°C° 0 mm 4 mps 748 mmHg 48%
    13:00 +25°C° 0 mm 4 mps 748 mmHg 47%
    14:00 +25°C° 0 mm 4 mps 748 mmHg 47%
    15:00 +25°C° 0 mm 4 mps 747 mmHg 51%
    16:00 +25°C° 0 mm 3 mps 747 mmHg 54%
    17:00 +24°C° 0 mm 3 mps 747 mmHg 58%
    18:00 +21°C° 0 mm 3 mps 747 mmHg 64%
    19:00 +19°C° 0 mm 2 mps 747 mmHg 70%
    20:00 +18°C° 0 mm 2 mps 747 mmHg 75%
    21:00 +17°C° 0 mm 2 mps 747 mmHg 77%
    22:00 +16°C° 0 mm 2 mps 747 mmHg 79%
    23:00 +15°C° 0 mm 2 mps 747 mmHg 81%

    Mañana, 21 Mayo, Martes

    Tiempo Temperatura Precipitaciones Viento Presión Humedad
    00:00 +15°C° 0 mm 2 mps 747 mmHg 82%
    01:00 +13°C° 0 mm 3 mps 747 mmHg 84%
    02:00 +13°C° 0 mm 3 mps 747 mmHg 85%
    03:00 +13°C° 0 mm 3 mps 747 mmHg 85%
    04:00 +13°C° 0 mm 3 mps 747 mmHg 84%
    05:00 +13°C° 0 mm 3 mps 747 mmHg 83%
    06:00 +15°C° 0 mm 4 mps 747 mmHg 76%
    07:00 +17°C° 0 mm 4 mps 747 mmHg 70%
    08:00 +19°C° 0 mm 5 mps 747 mmHg 63%
    09:00 +20°C° 0 mm 5 mps 746 mmHg 60%
    10:00 +21°C° 0 mm 5 mps 746 mmHg 57%
    11:00 +22°C° 0 mm 6 mps 746 mmHg 54%
    12:00 +23°C° 0 mm 5 mps 746 mmHg 55%
    13:00 +23°C° 0 mm 5 mps 745 mmHg 55%
    14:00 +25°C° 0 mm 5 mps 745 mmHg 56%
    15:00 +23°C° 0 mm 5 mps 745 mmHg 59%
    16:00 +23°C° 0 mm 4 mps 744 mmHg 61%
    17:00 +23°C° 0 mm 4 mps 744 mmHg 64%
    18:00 +21°C° 0 mm 3 mps 744 mmHg 70%
    19:00 +19°C° 0 mm 3 mps 744 mmHg 76%
    20:00 +18°C° 0 mm 3 mps 744 mmHg 82%
    21:00 +17°C° 0 mm 3 mps 744 mmHg 81%
    22:00 +16°C° 0 mm 3 mps 744 mmHg 81%
    23:00 +14°C° 0 mm 3 mps 744 mmHg 80%

    Pasado mañana, 22 Mayo, Miércoles

    Tiempo Temperatura Precipitaciones Viento Presión Humedad
    00:00 +14°C° 0 mm 3 mps 743 mmHg 83%
    01:00 +13°C° 0 mm 3 mps 743 mmHg 85%
    02:00 +14°C° 0 mm 2 mps 743 mmHg 88%
    03:00 +14°C° 0 mm 2 mps 743 mmHg 89%
    04:00 +14°C° 0 mm 2 mps 742 mmHg 90%
    05:00 +14°C° 0 mm 2 mps 742 mmHg 91%
    06:00 +15°C° 0 mm 2 mps 742 mmHg 87%
    07:00 +17°C° 0 mm 2 mps 742 mmHg 83%
    08:00 +19°C° 0 mm 2 mps 742 mmHg 78%
    09:00 +20°C° 0 mm 2 mps 742 mmHg 75%
    10:00 +21°C° 0 mm 3 mps 742 mmHg 72%
    11:00 +22°C° 0 mm 3 mps 741 mmHg 69%
    12:00 +24°C° 0.3 mm 3 mps 741 mmHg 68%
    13:00 +24°C° 0.3 mm 3 mps 741 mmHg 66%
    14:00 +25°C° 0.3 mm 3 mps 741 mmHg 65%
    15:00 +25°C° 0 mm 3 mps 740 mmHg 64%
    16:00 +25°C° 0 mm 3 mps 740 mmHg 64%
    17:00 +25°C° 0 mm 2 mps 740 mmHg 64%
    18:00 +23°C° 0.1 mm 2 mps 740 mmHg 71%
    19:00 +20°C° 0.1 mm 2 mps 740 mmHg 78%
    20:00 +19°C° 0.1 mm 1 mps 740 mmHg 85%
    21:00 +19°C° 0 mm 1 mps 740 mmHg 86%
    22:00 +17°C° 0 mm 2 mps 740 mmHg 88%
    23:00 +16°C° 0 mm 2 mps 740 mmHg 90%

    23 Mayo, Jueves

    Tiempo Temperatura Precipitaciones Viento Presión Humedad
    00:00 +16°C° 0 mm 2 mps 740 mmHg 91%
    01:00 +15°C° 0 mm 2 mps 740 mmHg 91%
    02:00 +15°C° 0 mm 2 mps 740 mmHg 92%
    03:00 +15°C° 0 mm 2 mps 740 mmHg 92%
    04:00 +15°C° 0 mm 2 mps 740 mmHg 91%
    05:00 +15°C° 0 mm 1 mps 740 mmHg 91%
    06:00 +17°C° 0 mm 2 mps 740 mmHg 85%
    07:00 +19°C° 0 mm 2 mps 740 mmHg 79%
    08:00 +21°C° 0 mm 2 mps 740 mmHg 73%
    09:00 +23°C° 0 mm 2 mps 740 mmHg 67%
    10:00 +24°C° 0 mm 3 mps 740 mmHg 62%
    11:00 +25°C° 0 mm 3 mps 740 mmHg 57%
    12:00 +25°C° 0 mm 3 mps 739 mmHg 55%
    13:00 +26°C° 0 mm 3 mps 739 mmHg 53%
    14:00 +26°C° 0 mm 3 mps 739 mmHg 52%
    15:00 +26°C° 0 mm 3 mps 739 mmHg 54%
    16:00 +25°C° 0 mm 3 mps 739 mmHg 57%
    17:00 +25°C° 0 mm 3 mps 739 mmHg 59%
    18:00 +23°C° 0 mm 2 mps 739 mmHg 65%
    19:00 +20°C° 0 mm 2 mps 739 mmHg 71%
    20:00 +19°C° 0 mm 1 mps 739 mmHg 77%
    21:00 +19°C° 0 mm 1 mps 739 mmHg 79%
    22:00 +18°C° 0 mm 1 mps 739 mmHg 81%
    23:00 +15°C° 0 mm 0 mps 739 mmHg 83%

    24 Mayo, Viernes

    Tiempo Temperatura Precipitaciones Viento Presión Humedad
    00:00 +16°C° 0 mm 1 mps 739 mmHg 84%
    01:00 +15°C° 0 mm 1 mps 739 mmHg 85%
    02:00 +15°C° 0 mm 1 mps 739 mmHg 86%
    03:00 +15°C° 0 mm 1 mps 738 mmHg 85%
    04:00 +16°C° 0 mm 1 mps 738 mmHg 85%
    05:00 +16°C° 0 mm 1 mps 738 mmHg 85%
    06:00 +18°C° 0 mm 1 mps 738 mmHg 82%
    07:00 +18°C° 0 mm 2 mps 738 mmHg 78%
    08:00 +20°C° 0 mm 2 mps 738 mmHg 75%
    09:00 +20°C° 0.6 mm 2 mps 738 mmHg 73%
    10:00 +21°C° 0.6 mm 2 mps 738 mmHg 71%
    11:00 +23°C° 0.6 mm 2 mps 738 mmHg 69%
    12:00 +24°C° 0.2 mm 1 mps 738 mmHg 64%
    13:00 +25°C° 0.2 mm 1 mps 738 mmHg 59%
    14:00 +24°C° 0.2 mm 0 mps 738 mmHg 54%
    15:00 +24°C° 0.2 mm 0 mps 737 mmHg 55%
    16:00 +23°C° 0.2 mm 0 mps 737 mmHg 57%
    17:00 +23°C° 0.2 mm 0 mps 737 mmHg 58%
    18:00 +23°C° 0.9 mm 1 mps 737 mmHg 67%
    19:00 +21°C° 0.9 mm 1 mps 737 mmHg 76%
    20:00 +18°C° 0.9 mm 2 mps 737 mmHg 85%
    21:00 +17°C° 0.5 mm 2 mps 736 mmHg 88%
    22:00 +16°C° 0.5 mm 2 mps 736 mmHg 90%
    23:00 +16°C° 0.5 mm 2 mps 736 mmHg 92%

    25 Mayo, Sábado

    Tiempo Temperatura Precipitaciones Viento Presión Humedad
    00:00 +15°C° 0.4 mm 2 mps 736 mmHg 93%
    01:00 +15°C° 0.4 mm 2 mps 736 mmHg 94%
    02:00 +15°C° 0.4 mm 2 mps 736 mmHg 95%
    03:00 +15°C° 0.3 mm 2 mps 736 mmHg 95%
    04:00 +15°C° 0.3 mm 2 mps 736 mmHg 95%
    05:00 +15°C° 0.3 mm 2 mps 736 mmHg 95%
    06:00 +16°C° 1.3 mm 2 mps 736 mmHg 93%
    07:00 +17°C° 1.3 mm 2 mps 736 mmHg 91%
    08:00 +19°C° 1.3 mm 1 mps 736 mmHg 88%
    09:00 +19°C° 1.3 mm 2 mps 736 mmHg 84%
    10:00 +21°C° 1.3 mm 2 mps 736 mmHg 79%
    11:00 +22°C° 1.3 mm 3 mps 736 mmHg 75%
    12:00 +21°C° 1.5 mm 3 mps 736 mmHg 78%
    13:00 +21°C° 1.5 mm 3 mps 736 mmHg 81%
    14:00 +20°C° 1.5 mm 3 mps 736 mmHg 83%
    15:00 +20°C° 0.6 mm 3 mps 735 mmHg 83%
    16:00 +20°C° 0.6 mm 3 mps 735 mmHg 83%
    17:00 +20°C° 0.6 mm 4 mps 735 mmHg 83%
    18:00 +19°C° 0.2 mm 4 mps 735 mmHg 85%
    19:00 +18°C° 0.2 mm 3 mps 735 mmHg 88%
    20:00 +17°C° 0.2 mm 3 mps 735 mmHg 90%
    21:00 +16°C° 0 mm 3 mps 735 mmHg 92%
    22:00 +15°C° 0 mm 4 mps 735 mmHg 94%
    23:00 +14°C° 0 mm 4 mps 735 mmHg 96%
    Mostrar más